Regional Weather Roundup
Issued by NWS

Home | Current Version | Previous Version | Graphics & Text | Print | Product List | Glossary On
Versions: 1 2 3 4 5 6 7 8 9 10 11 12 13 14 15 16 17 18 19 20 21 22 23 24 25 26 27 28 29 30 31 32 33 34 35 36 37 38 39 40 41 42 43 44 45 46 47 48 49 50
000
ASUS43 KDMX 030207
RWRIA

WEATHER ROUNDUP FOR IOWA
NATIONAL WEATHER SERVICE DES MOINES IA
900 PM CDT THU JUL 02 2015

NOTE: "FAIR" INDICATES FEW OR NO CLOUDS BELOW 12,000 FEET WITH NO
SIGNIFICANT WEATHER AND/OR OBSTRUCTIONS TO VISIBILITY.

* - THESE STATIONS ARE NOT NWS STATIONS...THUS NOT UNDER NWS
QUALITY CONTROL.  THEY ALSO DO NOT REPORT WEATHER SUCH
AS PRECIPITATION OR FOG.

IAZ001>003-012>014-020>022-031>034-043>046-030300-
   NORTHWEST IOWA

CITY           SKY/WX    TMP DP  RH WIND       PRES   REMARKS
CARROLL *      MOCLDY    63  57  82 SE5       29.98F
CHEROKEE *     CLOUDY    64  59  82 CALM      29.99S
DENISON *      CLOUDY    63  59  88 E7        29.95F
LE MARS *      PTCLDY    66  61  82 CALM      30.00R
ORANGE CITY *  CLEAR     64  57  77 CALM      29.99S
SHELDON *      CLEAR     63  63 100 SE3       29.98S
SIOUX CITY     CLOUDY    66  58  75 E6        29.97S
SPENCER        CLOUDY    63  54  72 SE5       30.00R
STORM LAKE *   CLEAR     63  57  82 SE6       30.00S
$$

IAZ055>058-069>071-079>083-090>094-030300-
   SOUTHWEST IOWA

CITY           SKY/WX    TMP DP  RH WIND       PRES   REMARKS
ATLANTIC *     MOCLDY    64  55  72 NE6       29.97S
AUDUBON *      CLEAR     63  57  82 CALM      29.98F
CLARINDA *     CLOUDY    68  61  77 E5        29.95F
COUNCIL BLFS * PTCLDY    66  63  88 NE9       29.95S
CRESTON *      CLOUDY    63  55  77 E6        29.96F
HARLAN  *      CLOUDY    63  59  88 E6        30.00F
LAMONI         PTCLDY    62  56  80 NE7       29.95F
RED OAK *      MOCLDY    68  63  83 E8        29.95S
SHENANDOAH *   CLOUDY    70  63  78 E9        29.94S
$$

IAZ047>049-059>061-072>074-084-030300-
   CENTRAL IOWA

CITY           SKY/WX    TMP DP  RH WIND       PRES   REMARKS
AMES           CLOUDY    64  56  75 CALM      29.98R
ANKENY *       CLOUDY    64  59  82 N3        29.97S
CHARITON *     MOCLDY    64  57  77 CALM      29.96S
DES MOINES     CLOUDY    67  54  63 VRB3      29.97R
GRINNELL*      CLOUDY    63  55  77 NE5       29.98S
KNOXVILLE *    CLOUDY    66  55  68 CALM      29.95S
MARSHALLTOWN   MOCLDY    65  59  81 N3        29.97S
PELLA *        CLOUDY    64  59  82 CALM      29.96F
PERRY *        CLOUDY    64  59  82 CALM      29.98F
$$

IAZ004>006-015-016-023>025-035-036-030300-
   NORTH CENTRAL IOWA

CITY           SKY/WX    TMP DP  RH WIND       PRES   REMARKS
ALGONA *       CLEAR     64  57  77 CALM      30.00R
CLARION *      CLEAR     64  57  77 CALM      29.99S
ESTHERVILLE    MOCLDY    62  56  80 S6        30.00R
FORT DODGE *   MOCLDY    64  52  63 SE5       29.99S
MASON CITY     PTCLDY    66  56  70 CALM      30.01R
FOREST CITY *  CLEAR     63  55  77 CALM      30.00R
IOWA FALLS *     N/A     64  57  77 CALM      30.00S
$$

IAZ007>011-017>019-026>030-037>042-050>054-066-030300-
   NORTHEAST IOWA

CITY           SKY/WX    TMP DP  RH WIND       PRES   REMARKS
CEDAR RAPIDS   CLOUDY    64  55  72 E3        29.97S
CHARLES CITY * CLEAR     64  61  88 CALM      29.99S
CLINTON *      CLOUDY    63  57  82 N3        29.99S
DECORAH *        N/A    N/A N/A N/A MISG        N/A
DUBUQUE        CLOUDY    62  50  64 NE5       29.99S
MONTICELLO *   CLEAR     61  61 100 CALM      29.98S
OELWEIN *        N/A    N/A N/A N/A E3        30.00S
WATERLOO       CLOUDY    66  60  81 E3        29.97S
$$

IAZ064-065-067-068-078-030300-
   EAST CENTRAL IOWA

CITY           SKY/WX    TMP DP  RH WIND       PRES   REMARKS
DAVENPORT      CLOUDY    63  58  83 NE5       29.97S
IOWA CITY      CLOUDY    66  55  67 NE5       29.98S
MT. PLEASANT * CLOUDY    66  57  72 NE6       29.95S
MUSCATINE *    PTCLDY    66  57  72 CALM      29.97R
QUAD CITIES    CLOUDY    68  56  65 NE3       29.96R
$$

IAZ062-063-075>077-085>089-095>099-030300-
   SOUTHEAST IOWA

CITY           SKY/WX    TMP DP  RH WIND       PRES   REMARKS
BURLINGTON     CLOUDY    67  59  75 NE9       29.94S
FAIRFIELD *    CLOUDY    64  57  77 NE7       29.95F
FORT MADISON * CLEAR     64  61  88 CALM      29.95S
KEOKUK *       CLEAR     66  61  82 CALM      29.94R
OSKALOOSA *      N/A     64  57  77 CALM      29.96F
CENTERVILLE *  CLEAR     64  59  82 CALM      29.97R
OTTUMWA        CLOUDY    65  57  75 NE7       29.94S
WASHINGTON *   CLEAR     64  59  82 NE5       29.97F
$$

ABBREVIATIONS USED IN REMARKS
   TC - TEMPERATURES IN CELSIUS
  WCI - WIND CHILL INDEX
   HX - HEAT INDEX
  VSB - VISIBILITY
$$



USA.gov is the U.S. government's official web portal to all federal, state and local government web resources and services.